When you browse on this site, cookies collect data to enhance your experience and personalize the content and advertising you see.
Visit our Privacy Policy to learn more. By continuing to use the site, you agree to this use of cookies and data.
  • In Sweden
  • List of Countries
  • For 7 days
  • Water Temperature
  • Satellite Maps
  • Weather Map
  • Weather Widgets
  • user-avatar
    Login

    Hourly Weather Trashkovo

    Today, 24 May, Friday

    Time Temperature Precipitation Wind Pressure Humidity
    00:00 +14°C° 0 mm 2 mps 745 mmHg 95%
    01:00 +13°C° 0 mm 2 mps 746 mmHg 96%
    02:00 +12°C° 0 mm 1 mps 746 mmHg 99%
    03:00 +13°C° 0 mm 1 mps 746 mmHg 97%
    04:00 +13°C° 0 mm 1 mps 746 mmHg 96%
    05:00 +13°C° 0 mm 1 mps 746 mmHg 95%
    06:00 +14°C° 0 mm 1 mps 746 mmHg 93%
    07:00 +14°C° 0 mm 1 mps 746 mmHg 92%
    08:00 +15°C° 0 mm 2 mps 747 mmHg 91%
    09:00 +15°C° 0 mm 2 mps 747 mmHg 89%
    10:00 +16°C° 0 mm 2 mps 747 mmHg 87%
    11:00 +16°C° 0 mm 2 mps 746 mmHg 85%
    12:00 +17°C° 0 mm 2 mps 746 mmHg 81%
    13:00 +17°C° 0 mm 2 mps 746 mmHg 78%
    14:00 +18°C° 0 mm 2 mps 746 mmHg 74%
    15:00 +18°C° 0 mm 2 mps 746 mmHg 75%
    16:00 +18°C° 0 mm 2 mps 746 mmHg 75%
    17:00 +18°C° 0 mm 2 mps 746 mmHg 75%
    18:00 +18°C° 0 mm 2 mps 746 mmHg 78%
    19:00 +18°C° 0 mm 1 mps 745 mmHg 81%
    20:00 +18°C° 0 mm 1 mps 745 mmHg 84%
    21:00 +16°C° 0 mm 1 mps 745 mmHg 86%
    22:00 +16°C° 0 mm 1 mps 745 mmHg 88%
    23:00 +15°C° 0 mm 1 mps 745 mmHg 90%

    Tomorrow, 25 May, Saturday

    Time Temperature Precipitation Wind Pressure Humidity
    00:00 +15°C° 0 mm 1 mps 745 mmHg 92%
    01:00 +15°C° 0 mm 1 mps 745 mmHg 94%
    02:00 +14°C° 0 mm 1 mps 744 mmHg 96%
    03:00 +15°C° 0.1 mm 1 mps 744 mmHg 96%
    04:00 +15°C° 0.1 mm 1 mps 744 mmHg 96%
    05:00 +15°C° 0.1 mm 1 mps 744 mmHg 95%
    06:00 +15°C° 0.4 mm 1 mps 743 mmHg 95%
    07:00 +16°C° 0.4 mm 1 mps 743 mmHg 95%
    08:00 +16°C° 0.4 mm 1 mps 743 mmHg 94%
    09:00 +18°C° 0.3 mm 1 mps 743 mmHg 92%
    10:00 +19°C° 0.3 mm 1 mps 742 mmHg 90%
    11:00 +19°C° 0.3 mm 1 mps 742 mmHg 88%
    12:00 +20°C° 1 mm 1 mps 742 mmHg 86%
    13:00 +19°C° 1 mm 2 mps 741 mmHg 84%
    14:00 +20°C° 1 mm 2 mps 741 mmHg 82%
    15:00 +20°C° 0.8 mm 2 mps 741 mmHg 81%
    16:00 +20°C° 0.8 mm 2 mps 741 mmHg 80%
    17:00 +20°C° 0.8 mm 2 mps 740 mmHg 79%
    18:00 +18°C° 0.1 mm 2 mps 740 mmHg 82%
    19:00 +17°C° 0.1 mm 2 mps 740 mmHg 84%
    20:00 +15°C° 0.1 mm 2 mps 740 mmHg 87%
    21:00 +14°C° 0 mm 2 mps 741 mmHg 90%
    22:00 +13°C° 0 mm 2 mps 741 mmHg 93%
    23:00 +12°C° 0 mm 2 mps 741 mmHg 96%

    Day after tomorrow, 26 May, Sunday

    Time Temperature Precipitation Wind Pressure Humidity
    00:00 +10°C° 0 mm 2 mps 741 mmHg 96%
    01:00 +11°C° 0 mm 1 mps 742 mmHg 96%
    02:00 +10°C° 0 mm 1 mps 742 mmHg 96%
    03:00 +10°C° 0 mm 1 mps 742 mmHg 96%
    04:00 +10°C° 0 mm 1 mps 742 mmHg 95%
    05:00 +8°C° 0 mm 2 mps 743 mmHg 95%
    06:00 +10°C° 0 mm 2 mps 743 mmHg 89%
    07:00 +12°C° 0 mm 2 mps 743 mmHg 82%
    08:00 +13°C° 0 mm 2 mps 743 mmHg 76%
    09:00 +14°C° 0 mm 3 mps 743 mmHg 69%
    10:00 +16°C° 0 mm 3 mps 743 mmHg 62%
    11:00 +18°C° 0 mm 3 mps 742 mmHg 55%
    12:00 +18°C° 0 mm 3 mps 742 mmHg 54%
    13:00 +19°C° 0 mm 3 mps 742 mmHg 53%
    14:00 +20°C° 0 mm 4 mps 742 mmHg 52%
    15:00 +20°C° 0 mm 4 mps 742 mmHg 53%
    16:00 +20°C° 0 mm 4 mps 741 mmHg 53%
    17:00 +20°C° 0 mm 4 mps 741 mmHg 54%
    18:00 +18°C° 0.1 mm 3 mps 741 mmHg 63%
    19:00 +16°C° 0.1 mm 3 mps 741 mmHg 71%
    20:00 +14°C° 0.1 mm 3 mps 741 mmHg 79%
    21:00 +13°C° 0.2 mm 3 mps 741 mmHg 84%
    22:00 +12°C° 0.2 mm 3 mps 741 mmHg 88%
    23:00 +11°C° 0.2 mm 3 mps 742 mmHg 92%

    27 May, Monday

    Time Temperature Precipitation Wind Pressure Humidity
    00:00 +10°C° 0.1 mm 3 mps 742 mmHg 93%
    01:00 +9°C° 0.1 mm 3 mps 742 mmHg 93%
    02:00 +8°C° 0.1 mm 3 mps 742 mmHg 94%
    03:00 +7°C° 0 mm 4 mps 742 mmHg 94%
    04:00 +7°C° 0 mm 4 mps 743 mmHg 93%
    05:00 +7°C° 0 mm 4 mps 743 mmHg 93%
    06:00 +10°C° 0 mm 4 mps 743 mmHg 86%
    07:00 +10°C° 0 mm 5 mps 743 mmHg 78%
    08:00 +12°C° 0 mm 5 mps 743 mmHg 71%
    09:00 +13°C° 0 mm 5 mps 744 mmHg 65%
    10:00 +15°C° 0 mm 5 mps 744 mmHg 60%
    11:00 +16°C° 0 mm 5 mps 744 mmHg 55%
    12:00 +17°C° 0 mm 5 mps 744 mmHg 54%
    13:00 +17°C° 0 mm 5 mps 744 mmHg 52%
    14:00 +19°C° 0 mm 5 mps 745 mmHg 51%
    15:00 +19°C° 0 mm 4 mps 745 mmHg 53%
    16:00 +19°C° 0 mm 4 mps 744 mmHg 56%
    17:00 +19°C° 0 mm 4 mps 744 mmHg 58%
    18:00 +18°C° 0 mm 3 mps 745 mmHg 66%
    19:00 +17°C° 0 mm 2 mps 745 mmHg 73%
    20:00 +16°C° 0 mm 2 mps 745 mmHg 80%
    21:00 +15°C° 0.2 mm 2 mps 745 mmHg 85%
    22:00 +14°C° 0.2 mm 3 mps 744 mmHg 89%
    23:00 +14°C° 0.2 mm 3 mps 744 mmHg 94%

    28 May, Tuesday

    Time Temperature Precipitation Wind Pressure Humidity
    00:00 +14°C° 0.2 mm 3 mps 745 mmHg 95%
    01:00 +13°C° 0.2 mm 3 mps 745 mmHg 96%
    02:00 +13°C° 0.2 mm 3 mps 745 mmHg 96%
    03:00 +13°C° 0 mm 3 mps 745 mmHg 96%
    04:00 +14°C° 0 mm 3 mps 745 mmHg 96%
    05:00 +14°C° 0 mm 3 mps 746 mmHg 96%
    06:00 +16°C° 0 mm 3 mps 746 mmHg 91%
    07:00 +17°C° 0 mm 3 mps 746 mmHg 86%
    08:00 +18°C° 0 mm 3 mps 747 mmHg 81%
    09:00 +19°C° 0 mm 3 mps 747 mmHg 72%
    10:00 +21°C° 0 mm 3 mps 747 mmHg 63%
    11:00 +22°C° 0 mm 3 mps 747 mmHg 54%
    12:00 +24°C° 0 mm 2 mps 747 mmHg 54%
    13:00 +24°C° 0 mm 2 mps 747 mmHg 54%
    14:00 +25°C° 0 mm 2 mps 747 mmHg 54%
    15:00 +23°C° 0.6 mm 1 mps 747 mmHg 65%
    16:00 +22°C° 0.6 mm 1 mps 746 mmHg 76%
    17:00 +20°C° 0.6 mm 1 mps 746 mmHg 87%
    18:00 +20°C° 1.5 mm 1 mps 746 mmHg 90%
    19:00 +19°C° 1.5 mm 1 mps 746 mmHg 94%
    20:00 +18°C° 1.5 mm 1 mps 746 mmHg 97%
    21:00 +17°C° 0.4 mm 2 mps 746 mmHg 97%
    22:00 +17°C° 0.4 mm 2 mps 746 mmHg 97%
    23:00 +17°C° 0.4 mm 2 mps 746 mmHg 97%

    29 May, Wednesday

    Time Temperature Precipitation Wind Pressure Humidity
    00:00 +17°C° 0 mm 2 mps 745 mmHg 97%
    01:00 +17°C° 0 mm 3 mps 745 mmHg 96%
    02:00 +16°C° 0 mm 3 mps 745 mmHg 95%
    03:00 +17°C° 0 mm 3 mps 745 mmHg 96%
    04:00 +17°C° 0 mm 3 mps 745 mmHg 96%
    05:00 +17°C° 0 mm 3 mps 744 mmHg 96%
    06:00 +19°C° 0 mm 4 mps 744 mmHg 90%
    07:00 +20°C° 0 mm 4 mps 744 mmHg 84%
    08:00 +22°C° 0 mm 5 mps 744 mmHg 78%
    09:00 +23°C° 0 mm 5 mps 744 mmHg 72%
    10:00 +25°C° 0 mm 5 mps 744 mmHg 67%
    11:00 +26°C° 0 mm 5 mps 744 mmHg 61%
    12:00 +26°C° 0.2 mm 5 mps 744 mmHg 64%
    13:00 +26°C° 0.2 mm 5 mps 743 mmHg 67%
    14:00 +26°C° 0.2 mm 5 mps 743 mmHg 70%
    15:00 +26°C° 0.1 mm 5 mps 743 mmHg 70%
    16:00 +26°C° 0.1 mm 5 mps 743 mmHg 70%
    17:00 +26°C° 0.1 mm 5 mps 744 mmHg 70%
    18:00 +23°C° 0.7 mm 4 mps 744 mmHg 77%
    19:00 +22°C° 0.7 mm 4 mps 744 mmHg 84%
    20:00 +20°C° 0.7 mm 3 mps 744 mmHg 91%
    21:00 +19°C° 0.4 mm 3 mps 744 mmHg 92%
    22:00 +19°C° 0.4 mm 3 mps 744 mmHg 93%
    23:00 +18°C° 0.4 mm 2 mps 744 mmHg 95%
    Show more